Regional Weather Roundup
Issued by NWS

Home | Current Version | Previous Version | Graphics & Text | Print | Product List | Glossary On
Versions: 1 2 3 4 5 6 7 8 9 10 11 12 13 14 15 16 17 18 19 20 21 22 23 24 25 26 27 28 29 30 31 32 33 34 35 36 37 38 39 40 41 42 43 44 45 46 47 48 49 50
444
ASUS43 KOAX 270510
RWRNE

WEATHER ROUNDUP FOR NEBRASKA
NATIONAL WEATHER SERVICE OMAHA NE
1200 AM CDT SAT AUG 27 2016

NOTES: SATELLITE DATA IS BEING USED TO AUGMENT CLOUD COVER ABOVE
       12000 FEET.
       "FAIR" INDICATES FEW OR NO CLOUDS BELOW 12,000 FEET WITH NO
       SIGNIFICANT WEATHER AND/OR OBSTRUCTIONS TO VISIBILITY.

  * THESE STATIONS DO NOT REPORT WEATHER SUCH AS RAIN...SNOW OR FOG.

NEZ001>004-019>022-054>056-270600-
NEBRASKA PANHANDLE

CITY           SKY/WX    TMP DP  RH WIND       PRES   REMARKS
SCOTTSBLUFF    CLOUDY    58  55  90 SE9       30.07S
ALLIANCE       CLEAR     53  51  93 E3        30.08R
CHADRON        HVY RAIN  55  49  80 NW8G37    30.11R
KIMBALL        CLOUDY    55  55 100 CALM      30.13S
SIDNEY         CLOUDY    55  54  96 S9        30.11R FOG
$$

NEZ057>060-069>072-079>082-270600-
SOUTHWEST NEBRASKA

CITY           SKY/WX    TMP DP  RH WIND       PRES   REMARKS
NORTH PLATTE   CLEAR     55  53  93 W6        30.06R FOG
IMPERIAL       PTCLDY    52  51  97 CALM      30.08S FOG
LEXINGTON      MOCLDY    60  57  87 W6        30.04F
MCCOOK         CLEAR     54  53  97 W5        30.05F
OGALLALA       CLOUDY    58  56  93 CALM      30.08S
$$

NEZ005>010-023>029-035>040-094-270600-
NORTH CENTRAL NEBRASKA

CITY           SKY/WX    TMP DP  RH WIND       PRES   REMARKS
VALENTINE      CLOUDY    56  55  97 N3        30.09R
AINSWORTH      CLOUDY    59  57  92 SE5       30.08R
BROKEN BOW     CLOUDY    62  61  96 E7        30.03F
O`NEILL        CLOUDY    64  60  86 SE7       30.06S
ORD            CLOUDY    64  61  90 S3        30.06R
THEDFORD       PTCLDY    57  56  95 CALM      30.07S
$$

NEZ041-046>049-061>064-073>077-083>087-270600-
SOUTH CENTRAL NEBRASKA

CITY           SKY/WX    TMP DP  RH WIND       PRES   REMARKS
GRAND ISLAND   CLOUDY    64  63  96 SE7       30.05S
AURORA         LGT RAIN  64  64 100 SE6       30.05F
HASTINGS       LGT RAIN  64  63  96 SE6       30.06F FOG
HEBRON         CLOUDY    65  64  97 CALM      30.04R FOG
HOLDREGE       CLOUDY    64  61  91 SE7       30.01F
KEARNEY *      CLOUDY   N/A N/A N/A SE20G29   29.96F
YORK           CLOUDY    64  64 100 SE6       30.05S FOG
$$

NEZ011>018-030>034-042>045-270600-
NORTHEAST NEBRASKA

CITY           SKY/WX    TMP DP  RH WIND       PRES   REMARKS
NORFOLK        CLOUDY    62  60  93 E6        30.05S
ALBION         LGT RAIN  63  61  94 SE6       30.06R
BLAIR          CLOUDY    65  64  93 E5        30.05S
FREMONT        CLOUDY    65  64  93 E6        30.04F
TEKAMAH        CLOUDY    65  63  93 CALM      30.05F
WAYNE          CLOUDY    63  62  96 E3        30.07R
$$

NEZ050>053-065>068-078-088>093-270600-
SOUTHEAST NEBRASKA

CITY           SKY/WX    TMP DP  RH WIND       PRES   REMARKS
LINCOLN        CLOUDY    68  65  90 E5        30.04F
OMAHA EPPLEY   MOCLDY    66  62  87 SE3       30.03F
BEATRICE       CLOUDY    68  66  95 SE6       30.03F
FALLS CITY     PTCLDY    67  66  97 W3        30.02S FOG
NEBRASKA CITY  CLOUDY    66  66 100 CALM      30.02F
PLATTSMOUTH    CLOUDY    65  65  97 CALM      30.04S
$$

NEZ044-045-051>053-067-270600-
OMAHA AREA

CITY           SKY/WX    TMP DP  RH WIND       PRES   REMARKS
OMAHA EPPLEY   MOCLDY    66  62  87 SE3       30.03F
BLAIR          CLOUDY    65  64  93 E5        30.05S
FREMONT        CLOUDY    65  64  93 E6        30.04F
MILLARD        CLOUDY    67  64  89 CALM      30.03F
OFFUTT AFB     PTCLDY    65  65  99 E6        30.02F
PLATTSMOUTH    CLOUDY    65  65  97 CALM      30.04S
WAHOO          CLOUDY    66  64  93 E3        30.04F
$$




USA.gov is the U.S. government's official web portal to all federal, state and local government web resources and services.